Temp
56 56 56 57 58 59 58 55 50 44 47 54 55 60 57 57 57 59 59 61 63 65 64 64 66 67 68 67 65 64 64 64 63 61 61 59 58 58
55 56 56 57 57 57 56 56 54 49 45 54 55 55 53 55 56 56 60 60 62 65 62 63 64 65 65 64 63 61 61 61 61 60 58 57 56 57
53 53 54 57 56 56 56 54 50 50 45 50 53 54 51 49 51 53 58 60 60 64 62 60 60 60 60 59 59 58 59 59 58 57 56 55 55 56
50 51 51 56 55 55 55 53 52 53 49 46 49 48 47 47 49 48 51 54 55 59 58 57 57 57 56 55 55 55 54 54 55 55 54 54 54 55
50 51 51 52 54 54 55 53 53 54 52 49 48 43 42 43 41 43 46 49 51 54 54 54 54 53 53 52 52 52 52 52 52 52 52 53 53 53
50 50 50 52 54 54 54 53 53 49 48 48 41 38 38 39 39 36 35 37 40 46 50 51 51 52 52 51 51 50 50 51 51 51 51 51 51 52
49 50 50 51 54 54 52 50 48 46 46 43 37 36 34 33 32 32 32 33 33 38 38 39 41 43 45 48 49 50 50 50 50 50 50 50 50 51
46 48 51 51 52 53 54 54 51 46 45 40 37 34 32 32 32 32 33 35 32 34 35 33 38 38 41 44 48 48 48 48 48 48 49 50 50 51
47 48 48 51 50 49 51 51 52 54 49 43 35 33 32 32 32 32 32 32 31 32 36 32 36 36 40 43 46 47 48 48 48 48 48 48 48 49
45 45 45 47 50 42 39 37 36 36 38 37 34 32 32 32 32 32 32 32 32 32 34 31 34 34 38 41 46 46 46 46 47 47 47 47 47 49
46 46 47 47 47 44 38 36 36 37 42 42 42 41 41 39 37 35 32 32 31 32 35 34 35 35 38 39 43 46 46 46 46 46 47 47 47 48
41 46 48 45 45 42 36 34 31 32 34 34 35 38 39 40 41 37 35 32 32 32 37 35 36 39 35 41 43 45 45 48 47 47 48 48 48 44
36 37 39 42 42 41 38 33 33 34 35 33 33 35 37 37 38 41 43 40 39 37 42 42 40 40 39 38 41 42 42 43 44 46 49 49 48 46
37 39 40 43 43 43 41 42 42 41 39 38 38 38 39 40 42 43 43 44 44 42 43 43 40 40 38 37 35 39 41 42 42 42 43 48 47 44
41 44 45 46 46 45 46 45 45 42 41 39 38 39 41 42 43 42 43 43 43 44 46 44 41 41 40 37 36 37 38 40 41 41 42 42 41 39
46 45 46 46 46 45 44 44 44 43 41 40 40 41 43 42 41 42 40 40 38 38 41 42 41 40 39 38 37 35 36 35 39 40 43 43 40 40
46 45 44 43 42 42 42 43 43 43 42 42 41 40 40 40 40 41 40 39 37 36 36 38 40 39 38 36 33 35 34 35 39 40 40 39 40 38
44 41 40 41 40 40 40 40 42 42 42 42 41 41 40 40 40 40 40 39 37 37 37 38 38 37 36 36 39 34 35 35 37 39 38 35 35 36
41 41 40 40 40 41 41 40 40 41 43 42 41 41 41 41 40 39 39 38 37 38 38 39 37 34 31 29 35 39 33 34 34 34 35 34 33 34
41 40 40 40 40 40 40 40 41 41 41 41 41 41 40 39 38 37 38 37 36 36 36 36 35 34 32 30 32 32 37 33 32 31 32 35 37 40
40 40 41 41 41 41 41 41 41 40 40 40 40 39 40 39 37 37 37 39 37 35 33 33 35 42 38 38 33 32 35 36 36 34 33 32 32 32
41 40 41 41 41 41 41 41 40 40 40 40 40 40 40 39 38 37 37 36 35 35 35 37 38 38 37 34 32 32 33 35 38 38 38 37 32 29
41 41 40 40 41 41 41 41 40 40 40 40 40 40 40 38 39 39 38 38 37 37 37 35 38 38 37 34 34 33 34 34 35 35 35 38 38 39
MSLP
1005.49 1005.56 1005.71 1005.78 1005.79 1005.72 1005.83 1006.20 1006.40 1006.33 1005.60 1005.19 1005.26 1004.54 1004.87 1004.79 1004.36 1003.56 1002.88 1002.20 1001.99 1001.96 1002.06 1002.19 1002.67 1003.39 1004.15 1004.58 1006.30 1007.41 1008.47 1009.75 1011.07 1011.91 1012.51 1012.83 1013.01 1013.34
1005.21 1005.04 1005.12 1005.19 1005.37 1005.45 1005.64 1005.93 1006.29 1006.56 1005.45 1005.27 1005.15 1004.79 1005.00 1004.64 1003.89 1002.90 1001.67 1001.32 1001.26 1001.36 1001.58 1001.80 1002.24 1002.80 1003.73 1004.80 1006.51 1007.65 1009.45 1010.45 1011.25 1011.82 1012.53 1013.08 1013.07 1013.11
1004.99 1005.00 1004.80 1004.75 1004.86 1005.00 1005.20 1005.60 1006.02 1006.24 1005.77 1005.47 1005.37 1005.00 1005.13 1004.85 1003.53 1002.03 1001.07 1001.01 1000.86 1000.67 1001.40 1001.97 1002.42 1003.22 1004.76 1006.34 1007.55 1008.59 1009.93 1010.66 1011.47 1012.38 1012.79 1013.05 1013.00 1012.83
1004.64 1004.63 1004.63 1004.57 1004.37 1004.65 1004.84 1005.14 1005.45 1005.46 1005.32 1005.08 1004.98 1005.50 1005.77 1005.18 1004.12 1002.85 1002.15 1001.45 1001.52 1001.57 1002.10 1002.90 1003.77 1005.00 1006.15 1007.41 1008.72 1009.63 1010.89 1011.35 1012.56 1013.13 1012.75 1012.91 1013.13 1013.00
1004.15 1004.19 1004.29 1004.20 1003.79 1004.07 1004.26 1004.49 1004.82 1004.85 1004.89 1004.85 1005.13 1006.30 1006.46 1006.06 1005.50 1005.00 1003.77 1003.17 1003.45 1004.34 1004.16 1005.01 1005.06 1006.27 1007.69 1008.70 1009.91 1010.84 1011.24 1011.97 1012.65 1012.92 1012.86 1013.17 1013.17 1012.98
1003.73 1003.99 1003.96 1003.68 1003.35 1003.50 1003.68 1003.82 1004.09 1004.51 1004.92 1004.98 1005.58 1006.44 1006.73 1006.76 1006.90 1007.17 1007.23 1006.02 1005.52 1005.51 1006.24 1006.69 1007.88 1007.83 1009.01 1009.82 1010.82 1011.24 1011.76 1012.42 1012.17 1012.90 1013.48 1013.57 1013.04 1012.96
1003.46 1003.63 1003.60 1003.50 1003.33 1003.36 1003.63 1003.86 1004.15 1004.35 1004.44 1004.79 1005.68 1006.44 1007.18 1007.22 1008.16 1008.63 1008.27 1006.91 1007.74 1007.28 1008.45 1009.05 1009.31 1010.53 1010.17 1010.94 1011.61 1011.50 1012.19 1012.33 1012.72 1013.32 1013.42 1013.24 1013.28 1013.18
1003.32 1003.26 1003.30 1003.41 1003.44 1003.35 1003.37 1003.50 1003.68 1003.76 1003.92 1004.55 1005.63 1006.57 1007.35 1007.90 1008.66 1009.06 1009.05 1008.63 1008.79 1009.48 1010.15 1010.38 1010.86 1011.04 1011.60 1012.48 1011.62 1012.85 1013.00 1013.33 1013.41 1013.42 1013.10 1013.49 1013.60 1013.25
1002.88 1002.97 1003.02 1002.95 1003.19 1003.34 1003.31 1003.19 1002.77 1002.22 1003.09 1004.02 1005.27 1006.96 1007.61 1008.46 1008.77 1009.02 1009.46 1009.95 1009.75 1011.14 1010.56 1011.33 1011.81 1012.63 1012.59 1012.49 1013.48 1012.83 1013.59 1013.40 1013.32 1013.49 1013.67 1013.62 1013.66 1013.09
1002.72 1002.84 1003.01 1003.10 1003.01 1003.76 1004.16 1004.44 1004.26 1004.37 1004.86 1005.56 1006.13 1007.44 1008.20 1008.70 1009.30 1009.75 1010.27 1010.64 1011.09 1011.72 1011.79 1012.37 1013.37 1013.70 1013.58 1013.71 1012.77 1013.72 1014.80 1013.59 1013.71 1013.85 1013.86 1013.59 1013.38 1012.69
1002.45 1002.82 1002.90 1003.00 1003.48 1003.78 1004.65 1005.00 1005.79 1006.26 1006.78 1007.00 1007.49 1008.17 1008.94 1009.79 1010.33 1010.54 1011.09 1011.09 1011.71 1012.38 1012.55 1012.61 1014.03 1014.52 1014.43 1014.20 1014.76 1014.43 1014.34 1013.82 1013.85 1013.90 1014.07 1013.72 1012.96 1012.82
1003.53 1003.00 1002.97 1003.71 1004.99 1005.17 1005.75 1006.35 1006.77 1007.90 1008.23 1008.64 1009.07 1009.71 1010.27 1010.74 1011.15 1011.42 1011.76 1011.98 1012.28 1012.76 1013.18 1013.23 1013.52 1013.20 1014.31 1014.60 1014.88 1014.32 1013.51 1013.53 1013.71 1014.16 1013.97 1013.39 1012.86 1013.21
1005.57 1006.02 1006.37 1006.65 1006.66 1006.87 1007.51 1008.15 1008.62 1009.46 1009.95 1010.17 1010.60 1010.98 1011.41 1011.75 1012.03 1012.14 1011.96 1011.94 1012.32 1012.83 1013.01 1013.05 1013.56 1013.81 1014.00 1014.63 1014.58 1013.88 1013.66 1014.00 1014.02 1014.02 1013.69 1013.69 1013.54 1013.35
1007.74 1008.15 1008.34 1008.24 1008.23 1008.55 1009.16 1009.73 1010.13 1010.46 1010.56 1010.71 1010.95 1011.37 1011.61 1011.84 1012.12 1012.30 1012.33 1012.48 1012.74 1012.80 1012.98 1012.99 1013.14 1013.39 1013.59 1013.97 1014.30 1014.45 1014.19 1014.49 1014.53 1014.37 1013.83 1013.33 1013.65 1013.71
1009.71 1009.77 1009.68 1009.52 1009.70 1009.97 1010.20 1010.49 1010.75 1010.78 1011.03 1011.35 1011.79 1012.10 1012.41 1012.82 1013.21 1013.41 1013.56 1013.71 1013.65 1013.75 1013.91 1013.89 1014.00 1014.06 1014.25 1014.31 1014.59 1014.66 1014.81 1014.81 1014.49 1014.24 1014.10 1014.00 1014.27 1014.03
1010.77 1010.84 1010.76 1010.79 1010.94 1011.21 1011.37 1011.56 1011.77 1012.14 1012.42 1012.62 1012.80 1013.04 1013.40 1013.70 1013.87 1014.05 1014.18 1014.49 1014.71 1015.08 1015.28 1015.11 1015.05 1014.94 1014.90 1015.29 1015.67 1015.87 1015.76 1015.51 1015.12 1014.82 1014.64 1014.30 1014.28 1014.17
1011.76 1011.88 1011.99 1012.25 1012.42 1012.55 1012.60 1012.70 1012.86 1013.04 1013.28 1013.65 1013.94 1014.24 1014.47 1014.59 1014.68 1014.86 1015.16 1015.41 1015.54 1015.91 1016.17 1016.33 1016.39 1016.40 1016.73 1016.82 1016.74 1016.71 1016.58 1016.17 1015.66 1015.07 1014.94 1014.63 1014.56 1014.52
1012.98 1013.13 1013.42 1013.68 1013.87 1014.18 1014.35 1014.46 1014.54 1014.59 1014.74 1014.88 1015.04 1015.26 1015.36 1015.51 1015.67 1015.79 1015.84 1015.97 1016.23 1016.45 1016.39 1016.24 1016.12 1016.44 1016.75 1017.37 1017.61 1017.47 1017.24 1016.92 1016.42 1015.98 1015.57 1015.19 1014.86 1014.63
1014.32 1014.63 1014.76 1014.91 1015.09 1015.21 1015.31 1015.43 1015.55 1015.66 1015.67 1015.65 1015.74 1015.94 1016.09 1016.24 1016.44 1016.60 1016.72 1016.81 1016.89 1017.08 1017.17 1017.15 1017.12 1017.22 1017.32 1017.72 1018.02 1018.10 1017.79 1017.37 1016.76 1016.17 1015.79 1015.51 1015.43 1015.15
1016.11 1016.24 1016.29 1016.38 1016.43 1016.46 1016.41 1016.42 1016.48 1016.58 1016.56 1016.58 1016.65 1016.80 1016.97 1017.11 1017.20 1017.27 1017.41 1017.58 1017.76 1017.88 1017.97 1018.09 1018.03 1017.95 1017.99 1018.03 1017.83 1018.36 1018.09 1017.81 1017.37 1016.94 1016.58 1016.20 1015.86 1015.46
1017.79 1017.73 1017.69 1017.65 1017.57 1017.55 1017.53 1017.47 1017.44 1017.54 1017.59 1017.65 1017.80 1017.86 1017.94 1018.03 1018.13 1018.25 1018.28 1018.33 1018.46 1018.56 1018.68 1018.64 1018.49 1018.15 1017.99 1017.90 1018.22 1018.55 1018.58 1018.41 1018.11 1017.71 1017.24 1016.64 1016.18 1015.91
1019.29 1019.19 1019.03 1018.87 1018.80 1018.63 1018.57 1018.49 1018.54 1018.57 1018.57 1018.75 1018.86 1018.91 1018.87 1018.72 1018.68 1018.73 1018.92 1019.14 1019.21 1019.26 1019.22 1019.04 1018.86 1018.75 1018.71 1018.80 1019.00 1019.02 1018.81 1018.56 1018.36 1018.10 1017.72 1017.41 1017.07 1016.74
1020.69 1020.56 1020.41 1020.11 1019.97 1019.74 1019.51 1019.51 1019.62 1019.66 1019.64 1019.79 1019.83 1019.78 1019.44 1019.36 1019.37 1019.50 1019.68 1019.85 1019.82 1019.76 1019.72 1019.54 1019.32 1019.15 1019.50 1019.61 1019.48 1019.38 1019.18 1018.87 1018.63 1018.22 1018.12 1017.84 1017.56 1017.11
Wind_Speed
13 13 10 9 8 7 6 5 7 9 11 8 10 7 4 6 11 11 11 15 18 23 18 17 18 21 21 28 28 26 24 22 18 15 11 7 3 2
10 12 11 9 10 8 7 6 6 8 14 7 9 6 7 9 12 11 11 14 13 23 17 15 20 22 25 29 28 26 24 21 18 15 10 5 2 2
13 13 12 12 8 8 7 6 6 8 11 9 9 5 8 10 10 9 8 5 6 14 15 18 23 27 28 25 24 25 21 20 16 12 9 5 2 3
13 12 12 12 11 10 8 8 8 10 9 11 6 3 3 8 10 12 4 11 12 26 33 33 31 29 28 28 23 22 18 17 13 10 9 5 4 4
13 13 12 17 11 9 9 8 10 8 8 8 4 3 2 5 6 8 9 12 15 26 32 31 34 33 28 26 24 20 19 17 13 10 8 5 5 7
11 9 12 13 12 11 9 9 7 6 9 10 3 3 4 5 6 5 5 8 11 13 23 23 21 30 27 26 22 20 17 14 15 12 8 6 8 10
8 9 9 11 17 13 8 9 9 9 8 2 4 2 2 3 4 3 2 11 13 10 12 11 12 9 12 19 18 20 17 15 13 9 7 8 8 9
8 9 9 15 17 23 23 20 15 10 10 5 4 7 5 9 3 2 2 4 12 8 9 11 10 9 7 5 20 17 13 13 12 9 11 11 11 11
7 5 5 6 9 7 11 12 19 28 12 6 13 9 12 7 8 12 12 7 10 2 10 9 7 9 6 10 12 15 12 16 15 14 12 12 14 13
6 6 6 7 6 12 11 12 14 14 12 9 12 12 11 9 9 10 11 9 8 7 4 8 4 5 7 5 17 14 10 15 13 13 14 14 16 15
6 6 6 3 19 23 15 17 15 14 23 30 30 27 26 23 14 8 7 9 8 5 5 4 3 5 4 4 4 10 10 11 10 12 13 15 17 16
20 12 12 19 26 27 16 13 18 13 13 15 14 18 18 19 20 10 7 8 6 5 2 4 3 2 3 2 1 2 4 7 7 6 8 13 18 8
14 15 17 34 35 35 27 16 19 16 20 14 12 10 9 9 7 5 6 4 7 6 2 2 4 2 4 5 3 3 5 5 5 6 9 11 15 15
15 13 19 33 34 32 22 30 28 19 10 10 10 9 9 8 8 9 12 11 8 6 4 5 4 4 5 5 4 3 4 4 4 4 4 9 14 16
14 25 32 31 30 24 28 27 20 10 11 11 11 10 9 9 11 11 11 13 13 12 8 9 6 5 4 5 6 7 5 4 4 5 6 5 6 7
20 19 24 25 25 20 16 15 11 11 10 10 10 9 8 8 8 7 8 8 9 10 14 14 12 11 7 9 7 6 6 4 4 4 5 4 5 7
16 12 12 12 12 12 12 12 10 10 10 9 9 9 8 7 7 6 7 7 8 7 6 6 10 12 10 8 5 7 7 6 8 5 6 5 6 7
13 12 12 12 12 11 10 10 10 12 9 9 9 8 8 8 8 7 7 7 7 6 5 3 3 4 5 9 14 6 5 5 6 6 5 4 6 7
13 12 12 11 11 10 10 10 10 9 9 9 9 8 8 8 9 7 8 8 8 8 7 7 7 7 5 6 3 14 5 6 6 7 6 4 4 7
12 12 11 11 11 11 10 10 9 9 9 9 9 9 9 9 9 9 8 8 7 7 7 7 6 5 5 1 2 3 14 6 6 7 6 3 2 10
11 11 11 10 10 9 9 8 9 10 9 9 9 9 9 8 8 7 7 11 10 5 6 5 2 4 1 3 4 3 4 9 8 7 7 4 4 5
10 11 10 10 9 9 9 9 9 10 9 9 9 9 8 7 6 6 5 6 5 5 4 4 5 4 5 6 5 4 3 3 6 11 14 12 4 4
10 10 9 9 9 9 9 9 9 9 9 8 8 8 6 6 5 6 6 6 5 4 4 3 3 3 6 4 5 5 9 6 3 5 5 12 11 14
Wind_Direction
241 238 241 251 255 252 251 252 271 281 276 286 290 291 320 298 283 284 281 262 278 233 211 212 202 198 201 152 154 151 152 156 156 157 153 152 140 310
258 241 235 230 240 246 246 244 252 271 276 279 281 333 334 301 288 291 280 257 275 233 204 188 182 168 157 143 144 141 149 152 153 143 139 133 127 335
247 252 254 240 241 241 236 229 234 252 270 281 281 321 319 324 319 346 278 224 245 207 140 119 115 116 118 121 130 134 145 139 132 135 134 123 87 2
240 249 252 253 234 237 249 233 238 250 249 265 280 7 356 338 352 26 352 82 77 109 109 110 106 107 109 111 110 113 119 116 120 128 117 85 30 1
241 240 242 250 235 233 235 231 242 258 288 281 243 58 30 1 11 32 32 81 83 86 93 99 106 105 105 107 111 113 116 113 104 80 74 47 22 4
241 238 244 258 237 239 252 264 272 266 259 263 97 100 63 27 52 36 8 43 73 77 81 92 100 104 104 104 105 103 105 110 100 81 52 23 14 359
227 237 244 256 270 260 251 255 250 251 250 201 121 125 110 76 40 41 47 83 61 59 74 62 61 74 83 84 91 91 89 85 82 81 57 33 14 7
238 240 244 249 249 249 253 256 242 237 235 145 135 141 113 104 92 100 92 86 98 26 73 74 63 58 66 114 87 89 85 95 92 78 54 31 5 353
244 232 255 256 257 256 269 275 275 251 173 164 135 135 121 116 112 94 75 65 73 56 88 70 66 75 58 71 95 88 62 68 67 58 48 23 359 351
229 228 235 255 259 100 90 72 59 57 73 90 100 104 97 95 87 93 101 90 66 51 35 81 60 75 51 48 72 80 72 68 55 49 38 24 7 354
216 218 230 278 120 115 95 90 86 86 99 101 99 99 97 95 95 98 82 89 78 51 27 79 86 107 111 102 123 95 84 74 64 42 28 19 20 7
50 44 77 92 93 88 79 79 77 65 71 73 74 73 77 87 83 72 81 88 89 88 77 70 113 112 80 120 100 1 85 64 105 66 30 21 21 8
63 64 72 79 82 80 78 76 80 80 74 76 78 79 85 92 102 114 142 153 108 93 98 215 163 152 105 145 97 44 51 29 20 7 10 30 24 15
69 72 79 80 79 80 85 90 93 93 93 89 89 88 85 76 74 70 64 71 81 86 84 28 45 63 71 57 65 17 69 34 23 4 341 30 24 10
76 81 78 77 79 81 83 80 77 74 76 77 77 79 80 87 88 83 74 70 64 59 57 51 48 53 72 79 68 38 25 43 11 13 354 29 23 3
74 75 73 74 77 78 75 72 74 75 75 76 76 75 76 74 74 71 74 73 71 63 49 44 44 39 54 53 50 35 8 4 347 2 2 7 30 12
66 64 64 64 64 59 56 57 59 65 74 79 77 75 72 73 75 83 85 84 80 75 73 81 79 76 63 53 42 36 4 348 348 8 13 359 18 3
61 59 59 58 60 62 64 62 59 62 64 69 71 76 79 77 73 64 59 63 71 71 57 27 107 121 88 70 55 20 11 354 341 0 21 350 6 356
51 51 51 51 55 57 58 60 60 56 61 66 67 66 66 69 75 74 70 67 64 61 51 42 40 33 50 56 40 42 15 6 355 10 1 4 353 355
46 47 47 48 48 46 44 48 54 54 52 55 59 62 59 56 55 55 57 65 65 57 58 44 32 55 61 55 352 71 42 13 1 9 360 328 351 1
40 44 42 42 41 44 45 49 53 58 58 58 59 59 59 67 77 75 70 75 68 58 61 47 10 346 337 350 29 18 16 4 7 23 2 346 346 2
38 39 35 36 38 39 41 43 47 49 49 55 57 57 61 62 63 63 62 63 58 56 50 35 16 29 28 37 30 4 339 340 47 47 39 37 353 355
35 35 32 29 30 30 36 41 47 48 47 52 54 54 52 56 56 58 57 54 54 48 42 38 25 27 59 34 27 20 27 19 345 358 23 32 26 47